Weather in Pervomayskiy

Russia / Saratov Oblast     52°13′20″N   44°12′31″E
temp.,
°C
wind,
m/s
gust,
m/s
humid.,
%
clouds,
%
prec.,
mm/h
press.,
hPa
HPBL,
m
17 october, sun
sun1701:00+8ssw3755100 0.0 1020189
04:00+7s3484100 0.9 1020145
07:00+8sse247895 0.3 1019100
10:00+9sse2463100 0.3 1019167
13:00+11ssw2359100 0.0 1018297
16:00+13s235294 0.0 1016544
19:00+10wsw1161100 0.0 101610
22:00+10ssw1163100 0.0 101610
18 october, mon
mon1801:00+9sw1165100 0.0 101510
04:00+9wnw226697 0.0 101420
07:00+8wnw227585 0.0 101432
10:00+9w237089 0.0 1014239
13:00+11w4556100 0.0 1013890
16:00+11w5655100 0.0 10121065
19:00+8w3866100 0.0 1013275
22:00+7w3764100 0.0 1013157
19 october, tue
tue1901:00+6wsw3666100 0.0 1013162
04:00+7w3569100 0.0 1012167
07:00+6w2377100 0.1 1012209
10:00+6wnw2481100 0.3 1012876
13:00+5nnw4490100 0.8 1013747
16:00+6nnw3568100 1.5 1013807
19:00+4wsw116484 0.0 101310
22:00+3nw367698 0.0 1014140
20 october, wed
wed2001:00+2nnw488665 0.0 1015240
04:000nw489748 0.0 1015288
07:00+1nnw488896 0.1 1017584
10:00+2nnw687995 0.1 1019870
13:00+4nnw7858100 0.2 10191483
16:00+4nnw686095 0.3 10211226
19:00+3nw486591 0.1 1023522
22:00+1wnw377416 0.1 1024154
21 october, thu
thu2101:00−1wnw36835 0.0 1024138
04:00−2w34845 0.0 102575
07:00−3wsw358152 0.0 1025105
10:00+1sw4666100 0.0 1025337
13:00+4sw675138 0.0 1023688
16:00+6sw695156 0.0 1022768
19:00+3ssw4126571 0.0 1021266
22:00+5ssw61452100 0.0 1019483